User: anonymous   Login
Location: NJAA Observatory
(40.6819°N, 74.8979°W)
Time: 13:05:37
(UTC-05:00)
Language:

Cosmos 2263 Rocket - Orbit

View from above orbital plane
View from above orbital plane
View from above satellite
View from above satellite

Ground track
Ground track

The orbit data is extracted from the following two-line orbital elements,

1 22803U 93059B   17058.50670158 -.00000052  00000-0 -21305-5 0  9999
2 22803  70.9898 120.5600 0018000 200.1383 159.9032 14.16763002212743
Epoch (UTC): 27 February 2017 12:09:39
Eccentricity: 0.0018000
inclination: 70.9898°
perigee height: 823 km
apogee height: 849 km
right ascension of ascending node: 120.5600°
argument of perigee: 200.1383°
revolutions per day: 14.16763002
mean anomaly at epoch: 159.9032°
orbit number at epoch: 21274

The dashed part of the orbit path shows where the satellite is in the earth's shadow,  

DLR